FW2272 Weather Reports


Display with metric or nautical units.
time (UTC)temp
F
wind
direction
speed
MPH
gust
MPH
rain 1hr
in
rain 24hr
in
rain mn
in
humidity
%
barometer
mb
20260509224719 89 150 3.0 0.0 0.00 0.00 0.00 53 1010.5
20260509224217 89 194 7.0 0.0 0.00 0.00 0.00 54 1010.5
20260509223718 89 98 7.0 0.0 0.00 0.00 0.00 53 1010.5
20260509223216 89 215 2.0 0.0 0.00 0.00 0.00 54 1010.5
20260509222717 89 279 3.0 0.0 0.00 0.00 0.00 53 1010.5
20260509222217 89 292 2.0 0.0 0.00 0.00 0.00 54 1010.5
20260509221717 89 232 3.0 0.0 0.00 0.00 0.00 54 1010.8
20260509221216 89 237 4.0 0.0 0.00 0.00 0.00 55 1010.8
20260509220715 89 302 5.0 0.0 0.00 0.00 0.00 54 1010.5
20260509220214 89 105 6.0 0.0 0.00 0.00 0.00 54 1010.8
20260509215715 89 48 4.0 0.0 0.00 0.00 0.00 56 1010.8
20260509215215 89 311 3.0 0.0 0.00 0.00 0.00 54 1010.8
20260509214714 89 198 6.0 0.0 0.00 0.00 0.00 54 1010.8
20260509214214 89 90 4.0 0.0 0.00 0.00 0.00 55 1010.8
20260509213714 89 173 6.0 0.0 0.00 0.00 0.00 55 1010.8
20260509213215 89 157 5.0 0.0 0.00 0.00 0.00 56 1010.8
20260509212713 89 260 4.0 0.0 0.00 0.00 0.00 54 1010.8
20260509212213 89 255 3.0 0.0 0.00 0.00 0.00 55 1010.8
20260509211713 89 267 6.0 0.0 0.00 0.00 0.00 55 1010.8
20260509211214 89 103 4.0 0.0 0.00 0.00 0.00 56 1010.8
20260509210713 89 85 4.0 0.0 0.00 0.00 0.00 55 1011.2
20260509210212 89 117 3.0 0.0 0.00 0.00 0.00 57 1011.2
20260509205720 89 340 4.0 0.0 0.00 0.00 0.00 57 1011.2
20260509205212 89 130 4.0 0.0 0.00 0.00 0.00 58 1011.2
20260509204713 90 234 4.0 0.0 0.00 0.00 0.00 56 1011.2
20260509204213 89 98 4.0 0.0 0.00 0.00 0.00 57 1011.5
20260509203715 89 95 5.0 0.0 0.00 0.00 0.00 57 1011.5
20260509203211 89 101 7.0 0.0 0.00 0.00 0.00 58 1011.5
20260509202712 89 134 5.0 0.0 0.00 0.00 0.00 57 1011.5
20260509202210 89 139 5.0 0.0 0.00 0.00 0.00 59 1011.5
20260509201715 89 338 4.0 0.0 0.00 0.00 0.00 57 1011.9
20260509201213 89 127 4.0 0.0 0.00 0.00 0.00 60 1011.9
20260509200713 90 113 4.0 0.0 0.00 0.00 0.00 59 1012.2
20260509200216 89 225 4.0 0.0 0.00 0.00 0.00 61 1012.2
20260509195710 89 240 2.0 0.0 0.00 0.00 0.00 57 1012.2
20260509195214 88 143 4.0 0.0 0.00 0.00 0.00 60 1012.2
20260509194710 89 261 5.0 0.0 0.00 0.00 0.00 58 1012.5
20260509194211 90 237 4.0 0.0 0.00 0.00 0.00 57 1012.5
20260509193710 89 109 3.0 0.0 0.00 0.00 0.00 58 1012.5
20260509193214 89 235 5.0 0.0 0.00 0.00 0.00 57 1012.5
20260509192712 88 59 6.0 0.0 0.00 0.00 0.00 59 1012.5
20260509192212 89 226 2.0 0.0 0.00 0.00 0.00 59 1012.5
20260509191712 89 263 4.0 0.0 0.00 0.00 0.00 57 1012.9
20260509191215 90 162 2.0 0.0 0.00 0.00 0.00 57 1012.9
20260509190710 90 268 3.0 0.0 0.00 0.00 0.00 57 1012.9
20260509190211 90 286 3.0 0.0 0.00 0.00 0.00 57 1012.9
20260509185712 90 172 3.0 0.0 0.00 0.00 0.00 59 1012.9
20260509185211 90 245 5.0 0.0 0.00 0.00 0.00 57 1012.9
20260509184712 90 139 5.0 0.0 0.00 0.00 0.00 59 1012.9
20260509184214 90 0 4.0 0.0 0.00 0.00 0.00 57 1013.2
20260509183713 90 244 3.0 0.0 0.00 0.00 0.00 60 1013.2
20260509183214 90 202 3.0 0.0 0.00 0.00 0.00 61 1013.2
20260509182715 90 275 3.0 0.0 0.00 0.00 0.00 57 1013.2
20260509182212 90 194 4.0 0.0 0.00 0.00 0.00 58 1013.2
20260509181711 89 117 4.0 0.0 0.00 0.00 0.00 59 1013.2
20260509181212 89 192 3.0 0.0 0.00 0.00 0.00 59 1013.5
20260509180712 89 170 3.0 0.0 0.00 0.00 0.00 61 1013.5
20260509180210 89 105 4.0 0.0 0.00 0.00 0.00 61 1013.5
20260509175712 89 283 4.0 0.0 0.00 0.00 0.00 62 1013.5
20260509175211 89 266 4.0 0.0 0.00 0.00 0.00 62 1013.5
20260509174714 89 92 3.0 0.0 0.00 0.00 0.00 65 1013.5
20260509174211 88 169 4.0 0.0 0.00 0.00 0.00 66 1013.5
20260509173713 87 260 3.0 0.0 0.00 0.00 0.00 67 1013.5
20260509173211 86 206 6.0 0.0 0.00 0.00 0.00 68 1013.5
20260509172715 85 128 4.0 0.0 0.00 0.00 0.00 68 1013.9
20260509172212 86 313 4.0 0.0 0.00 0.00 0.00 67 1013.9
20260509171714 85 96 3.0 0.0 0.00 0.00 0.00 68 1013.9
20260509171215 84 221 3.0 0.0 0.00 0.00 0.00 69 1013.9
20260509170713 83 205 3.0 0.0 0.00 0.00 0.00 72 1013.9
20260509170209 82 123 3.0 0.0 0.00 0.00 0.00 76 1013.9
20260509165713 80 163 2.0 0.0 0.00 0.00 0.00 77 1013.9
20260509165209 80 111 3.0 0.0 0.00 0.00 0.00 76 1013.9
20260509164713 81 316 3.0 0.0 0.00 0.00 0.00 78 1014.2
20260509164213 81 126 3.0 0.0 0.00 0.00 0.00 78 1014.2
20260509163714 81 187 3.0 0.0 0.00 0.00 0.00 78 1014.2
20260509163212 81 195 3.0 0.0 0.00 0.00 0.00 78 1013.9
20260509162713 80 132 4.0 0.0 0.00 0.00 0.00 80 1014.2
20260509162212 80 116 3.0 0.0 0.00 0.00 0.00 82 1013.9
20260509161711 80 263 4.0 0.0 0.00 0.00 0.00 82 1013.9
20260509161213 80 23 4.0 0.0 0.00 0.00 0.00 83 1013.9
20260509160713 79 96 4.0 0.0 0.00 0.00 0.00 84 1013.9
20260509160211 80 199 4.0 0.0 0.00 0.00 0.00 85 1013.9
20260509155713 79 158 4.0 0.0 0.00 0.00 0.00 86 1013.9
20260509155212 78 121 5.0 0.0 0.00 0.00 0.00 87 1013.9
20260509154711 77 151 6.0 0.0 0.00 0.00 0.00 89 1014.2
20260509154210 77 182 2.0 0.0 0.00 0.00 0.00 91 1014.6
20260509153719 76 118 3.0 0.0 0.00 0.00 0.00 91 1014.2
20260509153219 76 184 5.0 0.0 0.00 0.00 0.00 93 1014.2
20260509152722 75 242 3.0 0.0 0.00 0.00 0.00 93 1014.2
20260509152218 75 114 3.0 0.0 0.00 0.00 0.00 94 1014.6
20260509151719 75 115 4.0 0.0 0.00 0.00 0.00 95 1014.6
20260509151218 75 140 4.0 0.0 0.00 0.00 0.00 95 1014.6
20260509150720 74 150 4.0 0.0 0.00 0.00 0.00 96 1014.6
20260509150218 74 159 3.0 0.0 0.00 0.00 0.00 97 1014.6
20260509145718 74 225 3.0 0.0 0.00 0.00 0.00 97 1014.6
20260509145218 73 169 4.0 0.0 0.00 0.00 0.00 98 1014.6
20260509144719 73 92 0.0 0.0 0.00 0.00 0.00 98 1014.6
20260509144218 73 101 0.0 0.0 0.00 0.00 0.00 98 1014.6
20260509143718 73 182 0.0 0.0 0.00 0.00 0.00 98 1014.6
20260509143217 73 171 0.0 0.0 0.00 0.00 0.00 98 1014.6
20260509142719 73 74 1.0 0.0 0.00 0.00 0.00 98 1014.6
20260509142219 73 137 3.0 0.0 0.00 0.00 0.00 98 1014.2
20260509141718 73 214 0.0 0.0 0.00 0.00 0.00 98 1014.2
20260509141217 72 148 0.0 0.0 0.00 0.00 0.00 98 1014.2
20260509140718 72 170 0.0 0.0 0.00 0.00 0.00 98 1014.2
20260509140221 72 261 0.0 0.0 0.00 0.00 0.00 98 1013.9
20260509135716 72 255 0.0 0.0 0.00 0.00 0.00 98 1013.5
20260509135218 72 233 0.0 0.0 0.00 0.00 0.00 98 1013.5
20260509134718 72 237 4.0 0.0 0.00 0.00 0.00 98 1013.5
20260509134218 72 268 0.0 0.0 0.00 0.00 0.00 98 1013.5
20260509133717 72 239 1.0 0.0 0.00 0.00 0.00 98 1013.9
20260509133215 72 254 2.0 0.0 0.00 0.00 0.00 98 1013.9
20260509132716 72 220 3.0 0.0 0.00 0.00 0.00 98 1013.9
20260509132214 72 237 0.0 0.0 0.00 0.00 0.00 98 1013.9
20260509131716 72 252 0.0 0.0 0.00 0.00 0.00 98 1013.9
20260509131216 72 219 0.0 0.0 0.00 0.00 0.00 98 1013.9
20260509130714 72 197 0.0 0.0 0.00 0.00 0.00 98 1013.9
20260509130215 72 215 0.0 0.0 0.00 0.00 0.00 98 1013.9
20260509125715 72 248 0.0 0.0 0.00 0.00 0.00 98 1013.5
20260509125214 72 161 0.0 0.0 0.00 0.00 0.00 98 1013.9
20260509124713 72 204 0.0 0.0 0.00 0.00 0.00 98 1013.9
20260509124212 72 206 0.0 0.0 0.00 0.00 0.00 98 1013.9
20260509123712 72 260 0.0 0.0 0.00 0.00 0.00 98 1013.9
20260509123213 72 196 0.0 0.0 0.00 0.00 0.00 98 1013.9
20260509122715 72 214 0.0 0.0 0.00 0.00 0.00 98 1013.9
20260509122214 72 178 0.0 0.0 0.00 0.00 0.00 98 1013.9
20260509121811 72 205 3.0 0.0 0.00 0.00 0.00 98 1013.9
20260509120713 72 245 4.0 0.0 0.00 0.00 0.00 98 1013.9
20260509120211 72 289 4.0 0.0 0.00 0.00 0.00 98 1014.2
20260509115716 72 330 5.0 0.0 0.00 0.00 0.00 98 1013.9
20260509115213 72 277 4.0 0.0 0.00 0.00 0.00 98 1013.9
20260509114713 72 250 4.0 0.0 0.00 0.00 0.00 98 1013.9
20260509114212 72 268 4.0 0.0 0.00 0.00 0.00 98 1013.5
20260509113714 72 272 2.0 0.0 0.00 0.00 0.00 98 1013.5
20260509113211 72 224 0.0 0.0 0.00 0.00 0.00 98 1013.2
20260509112712 72 221 0.0 0.0 0.00 0.00 0.00 98 1013.2
20260509112214 72 221 0.0 0.0 0.00 0.00 0.00 98 1013.2
20260509111712 72 225 0.0 0.0 0.00 0.00 0.00 98 1013.2
20260509111213 72 229 0.0 0.0 0.00 0.00 0.00 98 1013.2
20260509110715 72 217 0.0 0.0 0.00 0.00 0.00 98 1013.2
20260509110212 72 226 0.0 0.0 0.00 0.00 0.00 98 1013.2
20260509105714 72 233 0.0 0.0 0.00 0.00 0.00 98 1013.2
20260509105210 72 223 0.0 0.0 0.00 0.00 0.00 98 1013.2
20260509104709 72 247 0.0 0.0 0.00 0.00 0.00 98 1013.2
20260509104213 72 232 0.0 0.0 0.00 0.00 0.00 98 1013.2
20260509103710 72 244 0.0 0.0 0.00 0.00 0.00 98 1013.2
20260509103213 72 228 0.0 0.0 0.00 0.00 0.00 97 1013.2
20260509102713 72 222 0.0 0.0 0.00 0.00 0.00 97 1013.2
20260509102213 72 238 0.0 0.0 0.00 0.00 0.00 97 1013.2
20260509101711 72 199 0.0 0.0 0.00 0.00 0.00 97 1013.2
20260509101214 72 239 0.0 0.0 0.00 0.00 0.00 97 1013.2
20260509100712 72 211 3.0 0.0 0.00 0.00 0.00 97 1013.2
20260509100211 72 260 0.0 0.0 0.00 0.00 0.00 97 1012.9
20260509095713 72 102 0.0 0.0 0.00 0.00 0.00 97 1012.9
20260509095213 72 223 0.0 0.0 0.00 0.00 0.00 97 1012.5
20260509094714 72 224 0.0 0.0 0.00 0.00 0.00 97 1012.5
20260509094213 72 227 0.0 0.0 0.00 0.00 0.00 97 1011.9
20260509093712 72 160 0.0 0.0 0.00 0.00 0.00 97 1012.2
20260509093212 72 202 0.0 0.0 0.00 0.00 0.00 97 1011.9
20260509092710 72 162 0.0 0.0 0.00 0.00 0.00 97 1012.2
20260509092209 72 235 0.0 0.0 0.00 0.00 0.00 97 1012.2
20260509091715 72 222 0.0 0.0 0.00 0.00 0.00 97 1012.2
20260509091214 72 264 0.0 0.0 0.00 0.00 0.00 97 1012.2
20260509090715 72 185 0.0 0.0 0.00 0.00 0.00 97 1012.5
20260509090215 72 197 0.0 0.0 0.00 0.00 0.00 97 1012.2
20260509085714 72 201 0.0 0.0 0.00 0.00 0.00 97 1012.2
20260509085209 72 200 0.0 0.0 0.00 0.00 0.00 97 1012.5
20260509084716 72 210 0.0 0.0 0.00 0.00 0.00 97 1012.2
20260509084214 72 184 0.0 0.0 0.00 0.00 0.00 97 1012.5
20260509083715 72 190 0.0 0.0 0.00 0.00 0.00 97 1012.5
20260509083216 72 203 0.0 0.0 0.00 0.00 0.00 97 1012.5
20260509082715 72 229 0.0 0.0 0.00 0.00 0.00 97 1012.5
20260509082213 72 187 0.0 0.0 0.00 0.00 0.00 96 1012.5
20260509081715 72 195 0.0 0.0 0.00 0.00 0.00 96 1012.5
20260509081213 72 195 0.0 0.0 0.00 0.00 0.00 96 1012.9
20260509080715 72 195 0.0 0.0 0.00 0.00 0.00 96 1012.9
20260509080214 72 177 0.0 0.0 0.00 0.00 0.00 96 1012.9
20260509075715 72 181 0.0 0.0 0.00 0.00 0.00 96 1012.5
20260509075215 72 189 0.0 0.0 0.00 0.00 0.00 96 1012.2
20260509074712 72 182 0.0 0.0 0.00 0.00 0.00 96 1012.2
20260509074213 72 175 2.0 0.0 0.00 0.00 0.00 96 1012.2
20260509073714 72 113 2.0 0.0 0.00 0.00 0.00 96 1012.5
20260509073214 72 192 0.0 0.0 0.00 0.00 0.00 96 1012.5
20260509072712 72 161 2.0 0.0 0.00 0.00 0.00 96 1012.5
20260509072216 72 199 0.0 0.0 0.00 0.00 0.00 96 1012.5
20260509071713 72 171 0.0 0.0 0.00 0.00 0.00 96 1012.5
20260509071212 72 135 3.0 0.0 0.00 0.00 0.00 96 1012.5
20260509070713 72 149 3.0 0.0 0.00 0.00 0.00 96 1012.5
20260509070212 72 154 2.0 0.0 0.00 0.00 0.00 96 1012.5
20260509065712 72 190 3.0 0.0 0.00 0.00 0.00 96 1012.5
20260509065211 72 197 0.0 0.0 0.00 0.00 0.00 96 1012.5
20260509064713 72 173 0.0 0.0 0.00 0.00 0.00 96 1012.9
20260509064211 72 191 1.0 0.0 0.00 0.00 0.00 96 1012.9
20260509063711 72 184 0.0 0.0 0.00 0.00 0.00 95 1012.9
20260509063212 72 190 0.0 0.0 0.00 0.00 0.00 95 1012.9
20260509062713 72 224 0.0 0.0 0.00 0.00 0.00 95 1012.9
20260509062213 72 196 0.0 0.0 0.00 0.00 0.00 95 1012.9
20260509061714 72 182 0.0 0.0 0.00 0.00 0.00 95 1013.2
20260509061211 72 195 0.0 0.0 0.00 0.00 0.00 95 1013.2
20260509060714 72 194 0.0 0.0 0.00 0.00 0.00 95 1013.2
20260509060209 72 164 0.0 0.0 0.00 0.00 0.00 95 1013.2
20260509055714 72 195 0.0 0.0 0.00 0.00 0.00 95 1013.2
20260509055215 72 192 0.0 0.0 0.00 0.00 0.00 95 1013.2
20260509054713 72 149 3.0 0.0 0.00 0.00 0.00 95 1013.2
20260509054211 71 195 2.0 0.0 0.00 0.00 0.00 95 1013.5
20260509053710 71 184 0.0 0.0 0.00 0.00 0.00 95 1013.5
20260509053213 71 175 0.0 0.0 0.00 0.00 0.00 95 1013.5
20260509052711 71 199 1.0 0.0 0.00 0.00 0.00 95 1013.5
20260509052213 71 132 2.0 0.0 0.00 0.00 0.00 95 1013.5
20260509051711 71 191 0.0 0.0 0.00 0.00 0.00 95 1013.5
20260509051213 71 125 1.0 0.0 0.00 0.00 0.00 95 1013.5
20260509050713 71 147 0.0 0.0 0.00 0.00 0.00 95 1013.5
20260509050216 71 184 0.0 0.0 0.00 0.00 0.00 95 1013.5
20260509045714 71 174 0.0 0.0 0.00 0.00 0.00 95 1013.5
20260509045215 71 182 0.0 0.0 0.00 0.00 0.00 95 1013.5
20260509044711 70 179 0.0 0.0 0.00 0.00 0.00 95 1013.5
20260509044213 70 193 0.0 0.0 0.00 0.00 0.00 95 1013.5
20260509043712 70 176 0.0 0.0 0.00 0.00 0.00 94 1013.5
20260509043212 69 187 0.0 0.0 0.00 0.00 0.00 94 1013.2
20260509042716 69 201 0.0 0.0 0.00 0.00 0.00 94 1013.2
20260509042213 69 199 0.0 0.0 0.00 0.00 0.00 94 1013.2
20260509041713 69 176 0.0 0.0 0.00 0.00 0.00 94 1012.9
20260509041213 68 161 0.0 0.0 0.00 0.00 0.00 94 1012.9
20260509040714 68 188 0.0 0.0 0.00 0.00 0.00 94 1012.9
20260509040216 68 170 0.0 0.0 0.00 0.00 0.00 93 1012.9
20260509035714 68 175 0.0 0.0 0.00 0.00 0.00 93 1012.9
20260509035212 68 173 0.0 0.0 0.00 0.00 0.00 93 1012.5
20260509034713 68 175 0.0 0.0 0.00 0.00 0.00 93 1012.5
20260509034214 68 189 0.0 0.0 0.00 0.00 0.00 93 1012.5
20260509033714 69 195 0.0 0.0 0.00 0.00 0.00 93 1012.5
20260509033217 69 184 0.0 0.0 0.00 0.00 0.00 93 1012.5
20260509032714 68 182 0.0 0.0 0.00 0.00 0.00 92 1012.5
20260509032211 68 174 0.0 0.0 0.00 0.00 0.00 92 1012.5
20260509031729 69 182 0.0 0.0 0.00 0.00 0.00 92 1012.5
20260509031227 69 165 0.0 0.0 0.00 0.00 0.00 92 1012.5
20260509030728 69 183 0.0 0.0 0.00 0.00 0.00 92 1012.5
20260509030227 69 184 0.0 0.0 0.00 0.00 0.00 91 1012.5
20260509025726 69 171 0.0 0.0 0.00 0.00 0.00 91 1012.5
20260509025229 69 169 0.0 0.0 0.00 0.00 0.00 91 1012.5
20260509024729 69 174 0.0 0.0 0.00 0.00 0.00 91 1012.5
20260509024226 70 176 0.0 0.0 0.00 0.00 0.00 90 1012.5
20260509023728 70 175 0.0 0.0 0.00 0.00 0.00 90 1012.2
20260509023226 70 197 0.0 0.0 0.00 0.00 0.00 90 1012.2
20260509022726 70 171 0.0 0.0 0.00 0.00 0.00 90 1012.2
20260509022225 70 173 0.0 0.0 0.00 0.00 0.00 90 1012.2
20260509021724 71 182 0.0 0.0 0.00 0.00 0.00 90 1011.9
20260509021225 71 156 0.0 0.0 0.00 0.00 0.00 89 1011.9
20260509020726 71 155 0.0 0.0 0.00 0.00 0.00 88 1011.9
20260509020225 71 161 0.0 0.0 0.00 0.00 0.00 88 1011.9
20260509015724 72 184 0.0 0.0 0.00 0.00 0.00 87 1011.5
20260509015224 72 168 0.0 0.0 0.00 0.00 0.00 87 1011.5
20260509014725 73 192 0.0 0.0 0.00 0.00 0.00 87 1011.5
20260509014227 73 195 0.0 0.0 0.00 0.00 0.00 86 1011.5
20260509013724 73 200 0.0 0.0 0.00 0.00 0.00 86 1011.5
20260509013225 73 199 0.0 0.0 0.00 0.00 0.00 86 1011.5
20260509012725 73 145 0.0 0.0 0.00 0.00 0.00 86 1011.2
20260509012223 73 171 2.0 0.0 0.00 0.00 0.00 85 1011.2
20260509011724 74 196 2.0 0.0 0.00 0.00 0.00 85 1011.2
20260509011225 74 174 1.0 0.0 0.00 0.00 0.00 84 1011.5
20260509010722 74 196 0.0 0.0 0.00 0.00 0.00 83 1011.5
20260509010223 74 168 0.0 0.0 0.00 0.00 0.00 83 1011.2
20260509005722 74 229 3.0 0.0 0.00 0.00 0.00 83 1011.2
20260509005221 75 183 3.0 0.0 0.00 0.00 0.00 82 1011.2
20260509004721 75 171 3.0 0.0 0.00 0.00 0.00 82 1011.2
20260509004221 75 184 3.0 0.0 0.00 0.00 0.00 82 1011.2
20260509003722 75 189 2.0 0.0 0.00 0.00 0.00 81 1011.2
20260509003224 75 211 1.0 0.0 0.00 0.00 0.00 81 1011.5
20260509002725 75 174 2.0 0.0 0.00 0.00 0.00 81 1011.2
20260509002221 75 169 3.0 0.0 0.00 0.00 0.00 81 1011.2
20260509001722 75 178 2.0 0.0 0.00 0.00 0.00 81 1011.5
20260509001224 75 177 3.0 0.0 0.00 0.00 0.00 80 1011.2
20260509000721 76 205 3.0 0.0 0.00 0.00 0.00 80 1011.2
20260509000226 75 179 3.0 0.0 0.00 0.00 0.00 80 1011.2
20260508235729 75 120 3.0 0.0 0.00 0.00 0.00 80 1011.5
20260508235220 75 184 3.0 0.0 0.00 0.00 0.00 80 1011.5
20260508234721 76 170 2.0 0.0 0.00 0.00 0.00 80 1011.5
20260508234221 76 223 2.0 0.0 0.00 0.00 0.00 79 1011.5
20260508233719 76 127 3.0 0.0 0.00 0.00 0.00 79 1011.5
20260508233220 76 158 4.0 0.0 0.00 0.00 0.00 79 1011.5
20260508232718 76 138 3.0 0.0 0.00 0.00 0.00 79 1011.5
20260508232218 76 99 3.0 0.0 0.00 0.00 0.00 79 1011.2
20260508231719 76 207 4.0 0.0 0.00 0.00 0.00 79 1011.5
20260508231219 76 230 5.0 0.0 0.00 0.00 0.00 79 1011.5
20260508230719 75 188 4.0 0.0 0.00 0.00 0.00 80 1011.5
20260508230218 75 139 3.0 0.0 0.00 0.00 0.00 80 1011.5
20260508225718 75 191 3.0 0.0 0.00 0.00 0.00 80 1011.2
20260508225218 75 84 5.0 0.0 0.00 0.00 0.00 79 1011.5